• In Hungary
  • List of Countries
  • For 7 days
  • Water Temperature
  • Satellite Maps
  • Weather Map
  • News
  • Weather Widgets
  • user-avatar
    Login

    Hourly Weather Westerlo

    Today, 12 December, Tuesday

    Time Temperature Precipitation Wind Pressure Humidity
    00:00 -1°C° 0.3 mm 6 mps 741 mmHg 92%
    01:00 0°C° 0.2 mm 5 mps 742 mmHg 91%
    02:00 0°C° 0.2 mm 5 mps 744 mmHg 90%
    03:00 0°C° 0.2 mm 4 mps 745 mmHg 89%
    04:00 0°C° 0.2 mm 4 mps 747 mmHg 89%
    05:00 0°C° 0.2 mm 4 mps 748 mmHg 89%
    06:00 0°C° 0.2 mm 4 mps 749 mmHg 90%
    07:00 0°C° 0.2 mm 4 mps 751 mmHg 91%
    08:00 0°C° 0.2 mm 4 mps 752 mmHg 92%
    09:00 0°C° 0.2 mm 4 mps 753 mmHg 93%
    10:00 0°C° 0.2 mm 4 mps 753 mmHg 94%
    11:00 0°C° 0.2 mm 4 mps 754 mmHg 95%
    12:00 0°C° 0.2 mm 4 mps 755 mmHg 95%
    13:00 0°C° 0.1 mm 4 mps 756 mmHg 95%
    14:00 0°C° 0.1 mm 4 mps 756 mmHg 94%
    15:00 0°C° 0.1 mm 4 mps 757 mmHg 94%
    16:00 -1°C° 0 mm 4 mps 757 mmHg 93%
    17:00 -1°C° 0 mm 4 mps 758 mmHg 93%
    18:00 -1°C° 0 mm 4 mps 758 mmHg 92%
    19:00 -1°C° 0 mm 4 mps 759 mmHg 92%
    20:00 -1°C° 0 mm 4 mps 759 mmHg 91%
    21:00 -1°C° 0 mm 4 mps 759 mmHg 90%
    22:00 -1°C° 0 mm 5 mps 759 mmHg 90%
    23:00 -1°C° 0 mm 5 mps 759 mmHg 89%

    Tomorrow, 13 December, Wednesday

    Time Temperature Precipitation Wind Pressure Humidity
    00:00 -1°C° 0 mm 5 mps 759 mmHg 88%
    01:00 -1°C° 0 mm 6 mps 758 mmHg 88%
    02:00 -1°C° 0 mm 6 mps 758 mmHg 88%
    03:00 -1°C° 0 mm 7 mps 757 mmHg 88%
    04:00 -1°C° 0.2 mm 7 mps 756 mmHg 88%
    05:00 0°C° 0.2 mm 8 mps 755 mmHg 88%
    06:00 0°C° 0.2 mm 9 mps 754 mmHg 88%
    07:00 +1°C° 1 mm 9 mps 753 mmHg 88%
    08:00 +1°C° 1 mm 10 mps 753 mmHg 87%
    09:00 +2°C° 1 mm 10 mps 752 mmHg 87%
    10:00 +2°C° 0.2 mm 9 mps 752 mmHg 89%
    11:00 +4°C° 0.2 mm 8 mps 751 mmHg 90%
    12:00 +4°C° 0.2 mm 7 mps 751 mmHg 91%
    13:00 +4°C° 0.6 mm 7 mps 750 mmHg 91%
    14:00 +4°C° 0.6 mm 7 mps 749 mmHg 91%
    15:00 +4°C° 0.6 mm 7 mps 748 mmHg 92%
    16:00 +5°C° 1.4 mm 8 mps 747 mmHg 90%
    17:00 +5°C° 1.4 mm 9 mps 746 mmHg 89%
    18:00 +6°C° 1.4 mm 10 mps 745 mmHg 88%
    19:00 +5°C° 1.7 mm 9 mps 745 mmHg 86%
    20:00 +5°C° 1.7 mm 8 mps 745 mmHg 83%
    21:00 +5°C° 1.7 mm 7 mps 745 mmHg 81%
    22:00 +4°C° 0.3 mm 7 mps 745 mmHg 80%
    23:00 +4°C° 0.3 mm 7 mps 745 mmHg 79%

    Day after tomorrow, 14 December, Thursday

    Time Temperature Precipitation Wind Pressure Humidity
    00:00 +3°C° 0.3 mm 7 mps 745 mmHg 78%
    01:00 +3°C° 0.5 mm 7 mps 746 mmHg 75%
    02:00 +2°C° 0.5 mm 7 mps 746 mmHg 72%
    03:00 +2°C° 0.5 mm 7 mps 747 mmHg 68%
    04:00 0°C° 0 mm 7 mps 747 mmHg 68%
    05:00 0°C° 0 mm 7 mps 747 mmHg 69%
    06:00 0°C° 0 mm 7 mps 748 mmHg 69%
    07:00 0°C° 0.1 mm 7 mps 747 mmHg 71%
    08:00 +2°C° 0.1 mm 7 mps 747 mmHg 74%
    09:00 +2°C° 0.1 mm 7 mps 747 mmHg 76%
    10:00 +2°C° 0.2 mm 7 mps 747 mmHg 76%
    11:00 +3°C° 0.2 mm 7 mps 746 mmHg 77%
    12:00 +3°C° 0.2 mm 6 mps 745 mmHg 77%
    13:00 +3°C° 0.5 mm 6 mps 744 mmHg 81%
    14:00 +3°C° 0.5 mm 5 mps 743 mmHg 84%
    15:00 +4°C° 0.5 mm 4 mps 742 mmHg 87%
    16:00 +3°C° 0.4 mm 4 mps 743 mmHg 85%
    17:00 +3°C° 0.4 mm 4 mps 743 mmHg 83%
    18:00 +3°C° 0.4 mm 4 mps 743 mmHg 80%
    19:00 +3°C° 0.1 mm 4 mps 743 mmHg 80%
    20:00 +1°C° 0.1 mm 5 mps 743 mmHg 80%
    21:00 +1°C° 0.1 mm 5 mps 743 mmHg 79%
    22:00 +1°C° 0.3 mm 5 mps 743 mmHg 80%
    23:00 +2°C° 0.3 mm 6 mps 743 mmHg 81%

    15 December, Friday

    Time Temperature Precipitation Wind Pressure Humidity
    00:00 +2°C° 0.3 mm 6 mps 743 mmHg 81%
    01:00 +2°C° 0.1 mm 6 mps 743 mmHg 82%
    02:00 +2°C° 0.1 mm 6 mps 743 mmHg 83%
    03:00 +2°C° 0.1 mm 7 mps 743 mmHg 84%
    04:00 +2°C° 0.3 mm 6 mps 743 mmHg 84%
    05:00 +2°C° 0.3 mm 6 mps 742 mmHg 85%
    06:00 +2°C° 0.3 mm 6 mps 742 mmHg 85%
    07:00 +1°C° 0.2 mm 5 mps 742 mmHg 86%
    08:00 +1°C° 0.2 mm 4 mps 743 mmHg 88%
    09:00 +2°C° 0.2 mm 3 mps 743 mmHg 89%
    10:00 +3°C° 0 mm 3 mps 743 mmHg 87%
    11:00 +4°C° 0 mm 3 mps 744 mmHg 84%
    12:00 +4°C° 0 mm 4 mps 744 mmHg 82%
    13:00 +4°C° 0.1 mm 4 mps 745 mmHg 83%
    14:00 +4°C° 0.1 mm 4 mps 746 mmHg 83%
    15:00 +4°C° 0.1 mm 4 mps 746 mmHg 84%
    16:00 +3°C° 0 mm 4 mps 747 mmHg 85%
    17:00 +2°C° 0 mm 3 mps 748 mmHg 87%
    18:00 +2°C° 0 mm 3 mps 749 mmHg 88%
    19:00 +2°C° 0 mm 3 mps 749 mmHg 89%
    20:00 +1°C° 0 mm 3 mps 750 mmHg 90%
    21:00 +1°C° 0 mm 3 mps 751 mmHg 91%
    22:00 +1°C° 0 mm 3 mps 751 mmHg 92%
    23:00 +1°C° 0 mm 3 mps 752 mmHg 92%

    16 December, Saturday

    Time Temperature Precipitation Wind Pressure Humidity
    00:00 +1°C° 0 mm 3 mps 752 mmHg 93%
    01:00 +1°C° 0 mm 3 mps 752 mmHg 92%
    02:00 +1°C° 0 mm 3 mps 753 mmHg 92%
    03:00 +2°C° 0 mm 2 mps 753 mmHg 92%
    04:00 +1°C° 0 mm 3 mps 753 mmHg 92%
    05:00 +1°C° 0 mm 3 mps 754 mmHg 92%
    06:00 +1°C° 0 mm 3 mps 754 mmHg 92%
    07:00 +1°C° 0.2 mm 3 mps 755 mmHg 92%
    08:00 +1°C° 0.2 mm 4 mps 755 mmHg 92%
    09:00 +1°C° 0.2 mm 4 mps 756 mmHg 92%
    10:00 +1°C° 0.6 mm 4 mps 756 mmHg 90%
    11:00 +3°C° 0.6 mm 4 mps 756 mmHg 87%
    12:00 +3°C° 0.6 mm 4 mps 756 mmHg 85%
    13:00 +3°C° 0.2 mm 4 mps 756 mmHg 84%
    14:00 +3°C° 0.2 mm 4 mps 756 mmHg 83%
    15:00 +3°C° 0.2 mm 4 mps 757 mmHg 81%
    16:00 +1°C° 0.1 mm 4 mps 757 mmHg 83%
    17:00 +1°C° 0.1 mm 4 mps 758 mmHg 84%
    18:00 0°C° 0.1 mm 4 mps 758 mmHg 85%
    19:00 0°C° 0.1 mm 4 mps 759 mmHg 86%
    20:00 0°C° 0.1 mm 4 mps 759 mmHg 86%
    21:00 0°C° 0.1 mm 4 mps 760 mmHg 86%
    22:00 0°C° 0.2 mm 4 mps 760 mmHg 86%
    23:00 0°C° 0.2 mm 4 mps 761 mmHg 86%

    17 December, Sunday

    Time Temperature Precipitation Wind Pressure Humidity
    00:00 0°C° 0.2 mm 4 mps 761 mmHg 86%
    01:00 0°C° 0.2 mm 4 mps 761 mmHg 86%
    02:00 0°C° 0.2 mm 4 mps 762 mmHg 86%
    03:00 0°C° 0.2 mm 4 mps 762 mmHg 85%
    04:00 0°C° 0.1 mm 4 mps 762 mmHg 86%
    05:00 0°C° 0.1 mm 4 mps 762 mmHg 86%
    06:00 0°C° 0.1 mm 4 mps 763 mmHg 86%
    07:00 0°C° 0 mm 4 mps 763 mmHg 86%
    08:00 0°C° 0 mm 4 mps 763 mmHg 85%
    09:00 0°C° 0 mm 4 mps 763 mmHg 85%
    10:00 +1°C° 0.1 mm 5 mps 763 mmHg 82%
    11:00 +1°C° 0.1 mm 5 mps 763 mmHg 80%
    12:00 +2°C° 0.1 mm 6 mps 763 mmHg 77%
    13:00 +2°C° 0.2 mm 6 mps 762 mmHg 80%
    14:00 +2°C° 0.2 mm 6 mps 762 mmHg 82%
    15:00 +2°C° 0.2 mm 6 mps 762 mmHg 84%
    16:00 +1°C° 0.1 mm 5 mps 762 mmHg 86%
    17:00 +1°C° 0.1 mm 5 mps 762 mmHg 88%
    18:00 +1°C° 0.1 mm 4 mps 762 mmHg 90%
    19:00 +1°C° 0 mm 4 mps 762 mmHg 91%
    20:00 +1°C° 0 mm 4 mps 762 mmHg 92%
    21:00 0°C° 0 mm 4 mps 762 mmHg 92%
    22:00 0°C° 0 mm 4 mps 762 mmHg 93%
    23:00 +1°C° 0 mm 3 mps 762 mmHg 93%
    Show more